Regional Weather Roundup
Issued by NWS

Home | Current Version | Previous Version | Graphics & Text | Print | Product List | Glossary On
Versions: 1 2 3 4 5 6 7 8 9 10 11 12 13 14 15 16 17 18 19 20 21 22 23 24 25 26 27 28 29 30 31 32 33 34 35 36 37 38 39 40 41 42 43 44 45 46 47 48 49 50
000
ASUS43 KBIS 210010
RWRND

NORTH DAKOTA REGIONAL WEATHER ROUNDUP
NATIONAL WEATHER SERVICE BISMARCK ND
600 PM CST MON NOV 20 2017

NOTE: "FAIR" INDICATES FEW OR NO CLOUDS BELOW 12,000 FEET WITH NO
SIGNIFICANT WEATHER AND/OR OBSTRUCTIONS TO VISIBILITY.


NDZ001>003-009>011-017-210100-
NORTHWEST NORTH DAKOTA

CITY           SKY/WX    TMP DP  RH WIND       PRES   REMARKS
WILLISTON      PTCLDY    30  17  58 W14       29.73R WCI  19
6HR MIN TEMP:  30; 6HR MAX TEMP:  49;

MINOT          CLOUDY    28  18  66 NW31G43   29.60R WCI  12
MINOT AFB      MOCLDY    25  17  69 NW31G43   29.58R WCI   8
$$

NDZ018>021-031>035-040>046-210100-
SOUTHWEST NORTH DAKOTA

CITY           SKY/WX    TMP DP  RH WIND       PRES   REMARKS
BISMARCK       CLEAR     42  29  59 NW17G25   29.65R
6HR MIN TEMP:  42; 6HR MAX TEMP:  60;

DICKINSON      MOCLDY    34  22  61 NW13      29.67R
GARRISON         N/A     31  20  63 NW18      29.64R WCI  19
6HR MIN TEMP:  31; 6HR MAX TEMP:  49;

HETTINGER ARPT MOCLDY    41  24  51 N16       29.68R
$$

NDZ004>008-012>016-024-026-027-054-210100-
NORTHEAST NORTH DAKOTA

CITY           SKY/WX    TMP DP  RH WIND       PRES   REMARKS
GRAND FORKS    PTCLDY    38  32  79 NW21G29   29.39R
GRND FRKS AFB  PTCLDY    38  30  74 NW23G29   29.40R
DEVILS LAKE    PTCLDY    31  26  82 W30G41    29.47R WCI  16
$$

NDZ022-023-025-028>030-036>039-047>053-210100-
SOUTHEAST NORTH DAKOTA

CITY           SKY/WX    TMP DP  RH WIND       PRES   REMARKS
FARGO          CLEAR     45  30  55 W25G38    29.44R
6HR MIN TEMP:  44; 6HR MAX TEMP:  54;

JAMESTOWN      CLEAR     37  27  67 NW31G40   29.53R
$$





USA.gov is the U.S. government's official web portal to all federal, state and local government web resources and services.